Time,TemperatureF,DewpointF,PressureIn,WindDirection,WindDirectionDegrees,WindSpeedMPH,WindSpeedGustMPH,Humidity,HourlyPrecipIn,Conditions,Clouds,dailyrainin,SoftwareType,DateUTC
2013-06-07 00:03:00,62.6,52.7,29.95,NNE,19,4.0,4.0,70,0.00,,SCT075,0.00,VWS V14.01,2013-06-07 05:03:00,
2013-06-07 00:08:00,62.5,52.6,29.95,NNE,17,0.0,3.0,70,0.00,,SCT075,0.00,VWS V14.01,2013-06-07 05:08:00,
2013-06-07 00:13:00,62.5,52.6,29.95,NNE,12,0.0,2.0,70,0.00,,SCT075,0.00,VWS V14.01,2013-06-07 05:13:00,
2013-06-07 00:18:00,62.4,52.5,29.95,NNE,12,2.0,3.0,70,0.00,,SCT075,0.00,VWS V14.01,2013-06-07 05:18:00,
2013-06-07 00:23:00,62.4,52.5,29.95,NNE,27,0.0,3.0,70,0.00,,SCT075,0.00,VWS V14.01,2013-06-07 05:23:00,
2013-06-07 00:28:00,62.2,52.3,29.95,NNE,18,2.0,5.0,70,0.00,,SCT075,0.00,VWS V14.01,2013-06-07 05:28:00,
2013-06-07 00:33:00,62.1,52.6,29.95,North,10,3.0,4.0,71,0.00,,SCT075,0.00,VWS V14.01,2013-06-07 05:33:00,
2013-06-07 00:38:00,62.0,52.9,29.96,NNE,14,4.0,4.0,72,0.00,,SCT075,0.00,VWS V14.01,2013-06-07 05:38:00,
2013-06-07 00:43:00,61.7,52.6,29.96,North,359,1.0,3.0,72,0.00,,SCT075,0.00,VWS V14.01,2013-06-07 05:43:00,
2013-06-07 00:48:00,61.4,52.7,29.96,NNE,16,0.0,2.0,73,0.00,,SCT075,0.00,VWS V14.01,2013-06-07 05:48:00,
2013-06-07 00:53:00,61.0,52.7,29.96,North,10,3.0,4.0,74,0.00,,CLR,0.00,VWS V14.01,2013-06-07 05:53:00,
2013-06-07 00:58:00,60.7,52.4,29.96,North,10,2.0,4.0,74,0.00,,CLR,0.00,VWS V14.01,2013-06-07 05:58:00,
2013-06-07 01:03:00,60.4,52.5,29.96,North,8,1.0,4.0,75,0.00,,CLR,0.00,VWS V14.01,2013-06-07 06:03:00,
2013-06-07 01:09:00,60.1,52.5,29.96,NNE,16,3.0,4.0,76,0.00,,CLR,0.00,VWS V14.01,2013-06-07 06:09:00,
2013-06-07 01:14:00,59.9,52.7,29.96,NNE,13,1.0,4.0,77,0.00,,CLR,0.00,VWS V14.01,2013-06-07 06:14:00,
2013-06-07 01:19:00,59.8,52.6,29.96,North,10,3.0,3.0,77,0.00,,CLR,0.00,VWS V14.01,2013-06-07 06:19:00,
2013-06-07 01:24:00,59.6,52.4,29.96,North,11,3.0,6.0,77,0.00,,CLR,0.00,VWS V14.01,2013-06-07 06:24:00,
2013-06-07 01:29:00,59.5,52.6,29.96,North,4,5.0,5.0,78,0.00,,CLR,0.00,VWS V14.01,2013-06-07 06:29:00,
2013-06-07 01:34:00,59.3,52.5,29.96,NNE,15,3.0,4.0,78,0.00,,CLR,0.00,VWS V14.01,2013-06-07 06:34:00,
2013-06-07 01:39:00,59.1,52.3,29.96,North,8,3.0,4.0,78,0.00,,CLR,0.00,VWS V14.01,2013-06-07 06:39:00,
2013-06-07 01:44:00,58.9,52.4,29.95,North,4,2.0,4.0,79,0.00,,CLR,0.00,VWS V14.01,2013-06-07 06:44:00,
2013-06-07 01:49:00,58.6,52.1,29.95,North,8,3.0,5.0,79,0.00,,CLR,0.00,VWS V14.01,2013-06-07 06:49:00,
2013-06-07 01:54:00,58.4,52.3,29.96,NNE,12,3.0,4.0,80,0.00,,CLR,0.00,VWS V14.01,2013-06-07 06:54:00,
2013-06-07 01:59:00,58.2,52.4,29.95,NNW,339,3.0,5.0,81,0.00,,CLR,0.00,VWS V14.01,2013-06-07 06:59:00,
2013-06-07 02:04:00,58.0,52.2,29.95,North,8,3.0,4.0,81,0.00,,CLR,0.00,VWS V14.01,2013-06-07 07:04:00,
2013-06-07 02:09:00,57.8,52.0,29.95,NNE,12,2.0,3.0,81,0.00,,CLR,0.00,VWS V14.01,2013-06-07 07:09:00,
2013-06-07 02:14:00,57.7,52.2,29.96,North,8,2.0,4.0,82,0.00,,CLR,0.00,VWS V14.01,2013-06-07 07:14:00,
2013-06-07 02:19:00,57.5,52.1,29.95,NNE,12,3.0,4.0,82,0.00,,CLR,0.00,VWS V14.01,2013-06-07 07:19:00,
2013-06-07 02:24:00,57.4,52.0,29.95,NNE,15,4.0,4.0,82,0.00,,CLR,0.00,VWS V14.01,2013-06-07 07:24:00,
2013-06-07 02:29:00,57.3,51.9,29.95,North,8,2.0,3.0,82,0.00,,CLR,0.00,VWS V14.01,2013-06-07 07:29:00,
2013-06-07 02:34:00,57.3,51.9,29.95,North,10,4.0,4.0,82,0.00,,CLR,0.00,VWS V14.01,2013-06-07 07:34:00,
2013-06-07 02:39:00,57.2,51.8,29.95,North,9,4.0,4.0,82,0.00,,CLR,0.00,VWS V14.01,2013-06-07 07:39:00,
2013-06-07 02:44:00,57.1,51.7,29.95,NNE,17,4.0,5.0,82,0.00,,CLR,0.00,VWS V14.01,2013-06-07 07:44:00,
2013-06-07 02:49:00,56.9,51.8,29.95,North,4,3.0,3.0,83,0.00,,CLR,0.00,VWS V14.01,2013-06-07 07:49:00,
2013-06-07 02:54:00,56.8,51.7,29.95,NNE,16,2.0,5.0,83,0.00,,SCT080,0.00,VWS V14.01,2013-06-07 07:54:00,
2013-06-07 02:59:00,56.7,51.6,29.96,North,4,2.0,5.0,83,0.00,,SCT080,0.00,VWS V14.01,2013-06-07 07:59:00,
2013-06-07 03:04:00,56.5,51.4,29.95,NNE,16,4.0,4.0,83,0.00,,SCT080,0.00,VWS V14.01,2013-06-07 08:04:00,
2013-06-07 03:09:00,56.4,51.6,29.96,North,8,5.0,5.0,84,0.00,,SCT080,0.00,VWS V14.01,2013-06-07 08:09:00,
2013-06-07 03:14:00,56.2,51.4,29.95,NNE,14,3.0,4.0,84,0.00,,SCT080,0.00,VWS V14.01,2013-06-07 08:14:00,
2013-06-07 03:19:00,56.1,51.3,29.96,North,4,2.0,3.0,84,0.00,,SCT080,0.00,VWS V14.01,2013-06-07 08:19:00,
2013-06-07 03:24:00,56.0,51.2,29.96,North,4,0.0,2.0,84,0.00,,SCT080,0.00,VWS V14.01,2013-06-07 08:24:00,
2013-06-07 03:29:00,55.8,51.4,29.95,North,9,1.0,2.0,85,0.00,,SCT080,0.00,VWS V14.01,2013-06-07 08:29:00,
2013-06-07 03:34:00,55.7,51.3,29.95,North,9,1.0,1.0,85,0.00,,SCT080,0.00,VWS V14.01,2013-06-07 08:34:00,
2013-06-07 03:39:00,55.6,51.2,29.96,North,9,0.0,0.0,85,0.00,,SCT080,0.00,VWS V14.01,2013-06-07 08:39:00,
2013-06-07 03:44:00,55.5,51.1,29.96,North,9,0.0,0.0,85,0.00,,SCT080,0.00,VWS V14.01,2013-06-07 08:44:00,
2013-06-07 03:49:00,55.4,51.3,29.96,North,9,1.0,3.0,86,0.00,,SCT080,0.00,VWS V14.01,2013-06-07 08:49:00,
2013-06-07 03:55:00,55.3,51.2,29.96,North,9,2.0,3.0,86,0.00,,CLR,0.00,VWS V14.01,2013-06-07 08:55:00,
2013-06-07 04:00:00,55.4,51.3,29.96,North,4,1.0,3.0,86,0.00,,CLR,0.00,VWS V14.01,2013-06-07 09:00:00,
2013-06-07 04:05:00,55.4,51.3,29.96,North,4,3.0,3.0,86,0.00,,CLR,0.00,VWS V14.01,2013-06-07 09:05:00,
2013-06-07 04:10:00,55.4,51.3,29.96,North,4,4.0,4.0,86,0.00,,CLR,0.00,VWS V14.01,2013-06-07 09:10:00,
2013-06-07 04:15:00,55.3,51.2,29.96,NNE,12,3.0,3.0,86,0.00,,CLR,0.00,VWS V14.01,2013-06-07 09:15:00,
2013-06-07 04:20:00,55.3,51.2,29.96,NNE,12,1.0,3.0,86,0.00,,CLR,0.00,VWS V14.01,2013-06-07 09:20:00,
2013-06-07 04:25:00,55.1,51.0,29.96,North,4,2.0,3.0,86,0.00,,CLR,0.00,VWS V14.01,2013-06-07 09:25:00,
2013-06-07 04:30:00,55.0,50.9,29.96,North,4,0.0,3.0,86,0.00,,CLR,0.00,VWS V14.01,2013-06-07 09:30:00,
2013-06-07 04:35:00,54.9,51.1,29.96,North,4,0.0,4.0,87,0.00,,CLR,0.00,VWS V14.01,2013-06-07 09:35:00,
2013-06-07 04:40:00,54.9,51.1,29.96,NNE,20,4.0,5.0,87,0.00,,CLR,0.00,VWS V14.01,2013-06-07 09:40:00,
2013-06-07 04:45:00,54.9,51.1,29.96,North,10,3.0,3.0,87,0.00,,CLR,0.00,VWS V14.01,2013-06-07 09:45:00,
2013-06-07 04:50:00,54.9,51.1,29.97,NNE,12,1.0,3.0,87,0.00,,CLR,0.00,VWS V14.01,2013-06-07 09:50:00,
2013-06-07 04:55:00,54.9,51.4,29.97,North,10,1.0,3.0,88,0.00,,CLR,0.00,VWS V14.01,2013-06-07 09:55:00,
2013-06-07 05:00:00,54.8,51.0,29.97,North,10,1.0,2.0,87,0.00,,CLR,0.00,VWS V14.01,2013-06-07 10:00:00,
2013-06-07 05:05:00,54.7,51.2,29.97,North,10,1.0,1.0,88,0.00,,CLR,0.00,VWS V14.01,2013-06-07 10:05:00,
2013-06-07 05:10:00,54.5,51.0,29.97,North,10,1.0,1.0,88,0.00,,CLR,0.00,VWS V14.01,2013-06-07 10:10:00,
2013-06-07 05:15:00,54.4,50.9,29.97,North,10,2.0,3.0,88,0.00,,CLR,0.00,VWS V14.01,2013-06-07 10:15:00,
2013-06-07 05:20:00,54.5,51.0,29.97,North,10,1.0,3.0,88,0.00,,CLR,0.00,VWS V14.01,2013-06-07 10:20:00,
2013-06-07 05:25:00,54.5,51.0,29.97,North,11,2.0,3.0,88,0.00,,CLR,0.00,VWS V14.01,2013-06-07 10:25:00,
2013-06-07 05:30:00,54.5,51.0,29.98,North,11,1.0,2.0,88,0.00,,CLR,0.00,VWS V14.01,2013-06-07 10:30:00,
2013-06-07 05:35:00,54.4,50.9,29.98,North,11,1.0,3.0,88,0.00,,CLR,0.00,VWS V14.01,2013-06-07 10:35:00,
2013-06-07 05:40:00,54.4,50.9,29.98,North,4,2.0,3.0,88,0.00,,CLR,0.00,VWS V14.01,2013-06-07 10:40:00,
2013-06-07 05:45:00,54.4,50.9,29.98,NNE,18,0.0,2.0,88,0.00,,CLR,0.00,VWS V14.01,2013-06-07 10:45:00,
2013-06-07 05:50:00,54.3,50.8,29.98,NNE,18,3.0,3.0,88,0.00,,CLR,0.00,VWS V14.01,2013-06-07 10:50:00,
2013-06-07 05:55:00,54.3,50.8,29.98,NNE,18,2.0,3.0,88,0.00,,FEW075,0.00,VWS V14.01,2013-06-07 10:55:00,
2013-06-07 06:00:00,54.2,50.7,29.98,NNE,18,2.0,2.0,88,0.00,,FEW075,0.00,VWS V14.01,2013-06-07 11:00:00,
2013-06-07 06:05:00,54.2,50.7,29.98,NNE,17,0.0,1.0,88,0.00,,FEW075,0.00,VWS V14.01,2013-06-07 11:05:00,
2013-06-07 06:10:00,54.1,50.6,29.98,NNE,18,0.0,0.0,88,0.00,,FEW075,0.00,VWS V14.01,2013-06-07 11:10:00,
2013-06-07 06:15:00,54.0,50.5,29.98,NNE,18,0.0,2.0,88,0.00,,FEW075,0.00,VWS V14.01,2013-06-07 11:15:00,
2013-06-07 06:20:00,54.0,50.8,29.98,NNE,18,1.0,2.0,89,0.00,,FEW075,0.00,VWS V14.01,2013-06-07 11:20:00,
2013-06-07 06:25:00,54.1,50.9,29.98,NNE,18,2.0,2.0,89,0.00,,FEW075,0.00,VWS V14.01,2013-06-07 11:25:00,
2013-06-07 06:30:00,54.4,51.2,29.98,NNE,18,2.0,2.0,89,0.00,,FEW075,0.00,VWS V14.01,2013-06-07 11:30:00,
2013-06-07 06:35:00,54.7,51.2,29.98,NNE,18,2.0,3.0,88,0.00,,FEW075,0.00,VWS V14.01,2013-06-07 11:35:00,
2013-06-07 06:40:00,54.8,51.3,29.98,NNE,18,1.0,1.0,88,0.00,,FEW075,0.00,VWS V14.01,2013-06-07 11:40:00,
2013-06-07 06:45:00,54.9,51.4,29.99,NNE,18,0.0,0.0,88,0.00,,FEW075,0.00,VWS V14.01,2013-06-07 11:45:00,
2013-06-07 06:50:00,54.9,51.4,29.99,NNE,18,0.0,0.0,88,0.00,,SCT070,0.00,VWS V14.01,2013-06-07 11:50:00,
2013-06-07 06:55:00,55.0,51.5,29.98,NNE,18,0.0,0.0,88,0.00,,SCT070,0.00,VWS V14.01,2013-06-07 11:55:00,
2013-06-07 07:01:00,55.1,51.6,29.98,NNE,18,0.0,0.0,88,0.00,,SCT070,0.00,VWS V14.01,2013-06-07 12:01:00,
2013-06-07 07:06:00,55.3,51.8,29.98,NNE,18,0.0,0.0,88,0.00,,SCT070,0.00,VWS V14.01,2013-06-07 12:06:00,
2013-06-07 07:11:00,55.4,51.9,29.98,NNE,18,0.0,0.0,88,0.00,,SCT070,0.00,VWS V14.01,2013-06-07 12:11:00,
2013-06-07 07:16:00,55.4,51.6,29.98,NNE,18,0.0,0.0,87,0.00,,SCT070,0.00,VWS V14.01,2013-06-07 12:16:00,
2013-06-07 07:21:00,55.5,51.7,29.99,NNE,18,0.0,0.0,87,0.00,,SCT070,0.00,VWS V14.01,2013-06-07 12:21:00,
2013-06-07 07:26:00,55.7,51.9,29.99,NNE,17,0.0,0.0,87,0.00,,SCT070,0.00,VWS V14.01,2013-06-07 12:26:00,
2013-06-07 07:31:00,55.9,52.1,29.99,NNE,18,0.0,0.0,87,0.00,,SCT070,0.00,VWS V14.01,2013-06-07 12:31:00,
2013-06-07 07:36:00,56.1,52.0,29.99,NNE,18,1.0,2.0,86,0.00,,SCT070,0.00,VWS V14.01,2013-06-07 12:36:00,
2013-06-07 07:41:00,56.4,52.0,29.99,NNE,18,0.0,1.0,85,0.00,,SCT070,0.00,VWS V14.01,2013-06-07 12:41:00,
2013-06-07 07:46:00,56.8,52.3,29.99,NNE,15,0.0,3.0,85,0.00,,SCT070,0.00,VWS V14.01,2013-06-07 12:46:00,
2013-06-07 07:51:00,57.5,52.7,29.99,NNE,16,3.0,4.0,84,0.00,,FEW045,0.00,VWS V14.01,2013-06-07 12:51:00,
2013-06-07 07:56:00,57.9,53.1,29.99,NNE,31,2.0,3.0,84,0.00,,FEW045,0.00,VWS V14.01,2013-06-07 12:56:00,
2013-06-07 08:01:00,58.5,53.0,29.99,NNE,23,2.0,4.0,82,0.00,,FEW045,0.00,VWS V14.01,2013-06-07 13:01:00,
2013-06-07 08:06:00,58.7,52.9,29.99,North,359,4.0,5.0,81,0.00,,FEW045,0.00,VWS V14.01,2013-06-07 13:06:00,
2013-06-07 08:12:00,59.1,53.3,29.99,North,4,2.0,5.0,81,0.00,,FEW045,0.00,VWS V14.01,2013-06-07 13:12:00,
2013-06-07 08:17:00,58.9,52.8,29.99,North,8,0.0,2.0,80,0.00,,FEW045,0.00,VWS V14.01,2013-06-07 13:17:00,
2013-06-07 08:22:00,59.0,52.8,29.99,NNE,14,1.0,4.0,80,0.00,,FEW045,0.00,VWS V14.01,2013-06-07 13:22:00,
2013-06-07 08:27:00,59.5,53.3,29.99,North,4,3.0,5.0,80,0.00,,FEW045,0.00,VWS V14.01,2013-06-07 13:27:00,
2013-06-07 08:32:00,59.7,53.2,29.99,North,359,3.0,4.0,79,0.00,,FEW045,0.00,VWS V14.01,2013-06-07 13:32:00,
2013-06-07 08:37:00,59.7,52.8,29.99,NE,37,1.0,7.0,78,0.00,,FEW045,0.00,VWS V14.01,2013-06-07 13:37:00,
2013-06-07 08:42:00,60.2,53.3,30.00,NE,37,4.0,4.0,78,0.00,,FEW045,0.00,VWS V14.01,2013-06-07 13:42:00,
2013-06-07 08:47:00,60.8,53.5,30.00,East,80,1.0,5.0,77,0.00,,FEW045,0.00,VWS V14.01,2013-06-07 13:47:00,
2013-06-07 08:52:00,61.1,53.5,30.00,North,4,3.0,6.0,76,0.00,,SCT045,0.00,VWS V14.01,2013-06-07 13:52:00,
2013-06-07 08:57:00,60.9,54.0,30.00,ENE,57,0.0,3.0,78,0.00,,SCT045,0.00,VWS V14.01,2013-06-07 13:57:00,
2013-06-07 09:02:00,61.4,54.1,30.00,North,4,3.0,3.0,77,0.00,,SCT045,0.00,VWS V14.01,2013-06-07 14:02:00,
2013-06-07 09:07:00,61.8,54.5,30.00,NNW,347,5.0,6.0,77,0.00,,SCT045,0.00,VWS V14.01,2013-06-07 14:07:00,
2013-06-07 09:12:00,61.5,53.5,30.00,North,350,7.0,7.0,75,0.00,,SCT045,0.00,VWS V14.01,2013-06-07 14:12:00,
2013-06-07 09:17:00,61.5,53.9,30.00,East,94,2.0,3.0,76,0.00,,SCT045,0.00,VWS V14.01,2013-06-07 14:17:00,
2013-06-07 09:22:00,61.7,54.4,30.00,NE,48,0.0,2.0,77,0.00,,SCT045,0.00,VWS V14.01,2013-06-07 14:22:00,
2013-06-07 09:27:00,62.3,53.9,30.00,East,89,1.0,3.0,74,0.00,,SCT045,0.00,VWS V14.01,2013-06-07 14:27:00,
2013-06-07 09:32:00,62.8,54.4,30.00,ESE,104,0.0,2.0,74,0.00,,SCT045,0.00,VWS V14.01,2013-06-07 14:32:00,
2013-06-07 09:37:00,62.9,54.1,30.00,SE,125,1.0,4.0,73,0.00,,SCT045,0.00,VWS V14.01,2013-06-07 14:37:00,
2013-06-07 09:42:00,63.2,54.8,30.00,NNE,18,1.0,3.0,74,0.00,,SCT045,0.00,VWS V14.01,2013-06-07 14:42:00,
2013-06-07 09:47:00,63.5,54.3,30.00,ESE,107,0.0,2.0,72,0.00,,SCT045,0.00,VWS V14.01,2013-06-07 14:47:00,
2013-06-07 09:52:00,63.9,54.7,30.00,East,89,3.0,5.0,72,0.00,,SCT045,0.00,VWS V14.01,2013-06-07 14:52:00,
2013-06-07 09:57:00,64.0,54.0,30.00,NNE,24,1.0,5.0,70,0.00,,SCT045,0.00,VWS V14.01,2013-06-07 14:57:00,
2013-06-07 10:02:00,64.0,54.0,30.00,West,262,3.0,3.0,70,0.00,,SCT045,0.00,VWS V14.01,2013-06-07 15:02:00,
2013-06-07 10:07:00,64.0,54.4,30.00,NNE,27,2.0,5.0,71,0.00,,SCT045,0.00,VWS V14.01,2013-06-07 15:07:00,
2013-06-07 10:12:00,64.5,54.1,30.00,North,4,1.0,2.0,69,0.00,,SCT045,0.00,VWS V14.01,2013-06-07 15:12:00,
2013-06-07 10:18:00,64.6,54.6,30.00,North,8,2.0,2.0,70,0.00,,SCT045,0.00,VWS V14.01,2013-06-07 15:18:00,
2013-06-07 10:23:00,64.4,54.4,30.00,NNW,341,1.0,1.0,70,0.00,,SCT045,0.00,VWS V14.01,2013-06-07 15:23:00,
2013-06-07 10:27:00,64.7,54.7,30.00,ENE,61,1.0,5.0,70,0.00,,SCT045,0.00,VWS V14.01,2013-06-07 15:27:00,
2013-06-07 10:33:00,65.3,55.3,30.00,NNW,337,2.0,3.0,70,0.00,,SCT045,0.00,VWS V14.01,2013-06-07 15:33:00,
2013-06-07 10:38:00,65.5,53.8,30.00,North,10,2.0,4.0,66,0.00,,SCT045,0.00,VWS V14.01,2013-06-07 15:38:00,
2013-06-07 10:43:00,65.7,54.5,30.00,NNE,31,1.0,2.0,67,0.00,,SCT043,0.00,VWS V14.01,2013-06-07 15:43:00,
2013-06-07 10:48:00,65.7,54.0,29.99,North,354,4.0,5.0,66,0.00,,SCT043,0.00,VWS V14.01,2013-06-07 15:48:00,
2013-06-07 10:53:00,65.8,54.1,29.99,North,4,3.0,5.0,66,0.00,,SCT043,0.00,VWS V14.01,2013-06-07 15:53:00,
2013-06-07 10:58:00,66.1,54.0,29.99,NNE,25,0.0,2.0,65,0.00,,SCT043,0.00,VWS V14.01,2013-06-07 15:58:00,
2013-06-07 11:03:00,66.5,54.4,29.99,NW,316,2.0,2.0,65,0.00,,SCT043,0.00,VWS V14.01,2013-06-07 16:03:00,
2013-06-07 11:08:00,66.0,54.3,29.99,NNE,33,0.0,5.0,66,0.00,,SCT043,0.00,VWS V14.01,2013-06-07 16:08:00,
2013-06-07 11:13:00,66.0,54.3,29.99,NE,46,2.0,2.0,66,0.00,,SCT043,0.00,VWS V14.01,2013-06-07 16:13:00,
2013-06-07 11:18:00,66.1,54.0,29.99,North,354,4.0,5.0,65,0.00,,SCT043,0.00,VWS V14.01,2013-06-07 16:18:00,
2013-06-07 11:23:00,66.3,53.8,29.99,SW,228,0.0,2.0,64,0.00,,SCT043,0.00,VWS V14.01,2013-06-07 16:23:00,
2013-06-07 11:28:00,66.1,54.0,29.99,NNW,338,0.0,3.0,65,0.00,,SCT043,0.00,VWS V14.01,2013-06-07 16:28:00,
2013-06-07 11:33:00,66.1,53.6,29.99,NNE,14,0.0,2.0,64,0.00,,SCT043,0.00,VWS V14.01,2013-06-07 16:33:00,
2013-06-07 11:38:00,66.7,54.2,29.99,WNW,300,1.0,4.0,64,0.00,,SCT043,0.00,VWS V14.01,2013-06-07 16:38:00,
2013-06-07 11:43:00,66.7,53.7,29.99,NNE,27,1.0,4.0,63,0.00,,SCT041,0.00,VWS V14.01,2013-06-07 16:43:00,
2013-06-07 11:48:00,67.3,53.0,29.99,NE,35,1.0,6.0,60,0.00,,SCT041,0.00,VWS V14.01,2013-06-07 16:48:00,
2013-06-07 11:53:00,67.9,53.5,29.99,North,4,4.0,8.0,60,0.00,,SCT041,0.00,VWS V14.01,2013-06-07 16:53:00,
2013-06-07 11:58:00,68.4,53.1,29.99,NE,35,2.0,6.0,58,0.00,,SCT041,0.00,VWS V14.01,2013-06-07 16:58:00,
2013-06-07 12:03:00,68.8,53.9,29.98,NE,41,3.0,6.0,59,0.00,,SCT041,0.00,VWS V14.01,2013-06-07 17:03:00,
2013-06-07 12:08:00,68.6,52.8,29.98,North,359,6.0,7.0,57,0.00,,SCT041,0.00,VWS V14.01,2013-06-07 17:08:00,
2013-06-07 12:13:00,67.5,52.7,29.98,NNE,15,5.0,9.0,59,0.00,,SCT041,0.00,VWS V14.01,2013-06-07 17:13:00,
2013-06-07 12:18:00,67.2,53.3,29.98,NNE,23,2.0,6.0,61,0.00,,SCT041,0.00,VWS V14.01,2013-06-07 17:18:00,
2013-06-07 12:23:00,67.3,52.5,29.98,NNE,26,7.0,8.0,59,0.00,,SCT041,0.00,VWS V14.01,2013-06-07 17:23:00,
2013-06-07 12:28:00,67.1,53.7,29.98,NNE,16,4.0,4.0,62,0.00,,SCT041,0.00,VWS V14.01,2013-06-07 17:28:00,
2013-06-07 12:33:00,67.2,52.9,29.97,NNW,342,2.0,4.0,60,0.00,,SCT041,0.00,VWS V14.01,2013-06-07 17:33:00,
2013-06-07 12:38:00,67.1,52.8,29.97,ENE,59,3.0,4.0,60,0.00,,SCT041,0.00,VWS V14.01,2013-06-07 17:38:00,
2013-06-07 12:43:00,67.6,53.7,29.97,North,10,4.0,6.0,61,0.00,,SCT041,0.00,VWS V14.01,2013-06-07 17:43:00,
2013-06-07 12:48:00,68.2,52.9,29.97,NNW,333,4.0,5.0,58,0.00,,SCT041,0.00,VWS V14.01,2013-06-07 17:48:00,
2013-06-07 12:53:00,68.6,53.7,29.97,NNE,18,2.0,2.0,59,0.00,,BKN055,0.00,VWS V14.01,2013-06-07 17:53:00,
2013-06-07 12:58:00,68.8,52.5,29.97,NNE,16,5.0,9.0,56,0.00,,BKN055,0.00,VWS V14.01,2013-06-07 17:58:00,
2013-06-07 13:03:00,68.1,52.3,29.97,North,4,8.0,8.0,57,0.00,,BKN055,0.00,VWS V14.01,2013-06-07 18:03:00,
2013-06-07 13:09:00,67.5,52.2,29.97,North,11,0.0,5.0,58,0.00,,BKN055,0.00,VWS V14.01,2013-06-07 18:09:00,
2013-06-07 13:14:00,67.8,52.0,29.96,NNE,24,2.0,6.0,57,0.00,,BKN055,0.00,VWS V14.01,2013-06-07 18:14:00,
2013-06-07 13:19:00,67.9,52.1,29.96,NW,316,2.0,9.0,57,0.00,,BKN055,0.00,VWS V14.01,2013-06-07 18:19:00,
2013-06-07 13:24:00,67.9,53.5,29.96,North,8,3.0,6.0,60,0.00,,BKN055,0.00,VWS V14.01,2013-06-07 18:24:00,
2013-06-07 13:29:00,68.3,52.0,29.96,NE,50,3.0,5.0,56,0.00,,BKN055,0.00,VWS V14.01,2013-06-07 18:29:00,
2013-06-07 13:34:00,68.3,52.5,29.96,NNE,14,4.0,5.0,57,0.00,,BKN055,0.00,VWS V14.01,2013-06-07 18:34:00,
2013-06-07 13:39:00,68.7,51.9,29.96,ENE,73,2.0,5.0,55,0.00,,BKN055,0.00,VWS V14.01,2013-06-07 18:39:00,
2013-06-07 13:44:00,69.0,52.7,29.95,SE,125,3.0,6.0,56,0.00,,BKN055,0.00,VWS V14.01,2013-06-07 18:44:00,
2013-06-07 13:49:00,69.6,53.7,29.95,WNW,291,4.0,6.0,57,0.00,,BKN055,0.00,VWS V14.01,2013-06-07 18:49:00,
2013-06-07 13:54:00,69.7,52.3,29.95,North,9,2.0,4.0,54,0.00,,SCT047,0.00,VWS V14.01,2013-06-07 18:54:00,
2013-06-07 13:59:00,69.8,52.4,29.95,NNE,33,4.0,4.0,54,0.00,,SCT047,0.00,VWS V14.01,2013-06-07 18:59:00,
2013-06-07 14:04:00,69.3,51.5,29.95,North,359,5.0,7.0,53,0.00,,SCT047,0.00,VWS V14.01,2013-06-07 19:04:00,
2013-06-07 14:10:00,69.5,52.6,29.95,NNE,28,5.0,6.0,55,0.00,,SCT047,0.00,VWS V14.01,2013-06-07 19:10:00,
2013-06-07 14:15:00,69.6,52.2,29.94,NNW,344,0.0,1.0,54,0.00,,SCT047,0.00,VWS V14.01,2013-06-07 19:15:00,
2013-06-07 14:20:00,69.3,51.5,29.94,WSW,256,2.0,3.0,53,0.00,,SCT047,0.00,VWS V14.01,2013-06-07 19:20:00,
2013-06-07 14:25:00,69.4,52.5,29.94,WSW,241,0.0,1.0,55,0.00,,SCT047,0.00,VWS V14.01,2013-06-07 19:25:00,
2013-06-07 14:30:00,70.6,51.1,29.94,ESE,109,0.0,3.0,50,0.00,,SCT047,0.00,VWS V14.01,2013-06-07 19:30:00,
2013-06-07 14:35:00,71.6,52.5,29.94,West,277,1.0,6.0,51,0.00,,SCT047,0.00,VWS V14.01,2013-06-07 19:35:00,
2013-06-07 14:40:00,71.9,52.3,29.94,North,11,3.0,3.0,50,0.00,,SCT047,0.00,VWS V14.01,2013-06-07 19:40:00,
2013-06-07 14:45:00,72.0,53.4,29.94,North,4,2.0,4.0,52,0.00,,SCT060,0.00,VWS V14.01,2013-06-07 19:45:00,
2013-06-07 14:50:00,71.8,51.6,29.94,NNE,17,3.0,6.0,49,0.00,,SCT060,0.00,VWS V14.01,2013-06-07 19:50:00,
2013-06-07 14:55:00,71.2,51.6,29.94,NW,316,1.0,5.0,50,0.00,,SCT060,0.00,VWS V14.01,2013-06-07 19:55:00,
2013-06-07 15:00:00,71.0,52.0,29.93,NE,40,4.0,8.0,51,0.00,,SCT060,0.00,VWS V14.01,2013-06-07 20:00:00,
2013-06-07 15:06:00,71.2,51.1,29.93,NNE,13,3.0,3.0,49,0.00,,SCT060,0.00,VWS V14.01,2013-06-07 20:06:00,
2013-06-07 15:11:00,71.4,51.3,29.93,NE,37,1.0,4.0,49,0.00,,SCT060,0.00,VWS V14.01,2013-06-07 20:11:00,
2013-06-07 15:16:00,71.3,50.6,29.93,NNE,16,1.0,3.0,48,0.00,,SCT060,0.00,VWS V14.01,2013-06-07 20:16:00,
2013-06-07 15:21:00,71.8,51.6,29.92,NNE,29,5.0,8.0,49,0.00,,SCT060,0.00,VWS V14.01,2013-06-07 20:21:00,
2013-06-07 15:27:00,71.8,52.2,29.92,NNE,17,3.0,5.0,50,0.00,,SCT060,0.00,VWS V14.01,2013-06-07 20:27:00,
2013-06-07 15:32:00,71.6,52.5,29.92,NNE,25,5.0,7.0,51,0.00,,SCT250,0.00,VWS V14.01,2013-06-07 20:32:00,
2013-06-07 15:37:00,71.8,51.6,29.92,East,81,0.0,4.0,49,0.00,,SCT250,0.00,VWS V14.01,2013-06-07 20:37:00,
2013-06-07 15:42:00,72.4,51.6,29.92,NNE,12,3.0,3.0,48,0.00,,SCT250,0.00,VWS V14.01,2013-06-07 20:42:00,
2013-06-07 15:48:00,72.6,52.4,29.92,South,176,2.0,2.0,49,0.00,,SCT250,0.00,VWS V14.01,2013-06-07 20:48:00,
2013-06-07 15:53:00,72.8,51.4,29.92,NE,41,2.0,2.0,47,0.00,,SCT250,0.00,VWS V14.01,2013-06-07 20:53:00,
2013-06-07 15:58:00,72.7,48.9,29.92,SSE,155,2.0,6.0,43,0.00,,SCT250,0.00,VWS V14.01,2013-06-07 20:58:00,
2013-06-07 16:03:00,72.6,50.1,29.92,NNW,340,0.0,4.0,45,0.00,,SCT250,0.00,VWS V14.01,2013-06-07 21:03:00,
2013-06-07 16:08:00,72.8,50.8,29.91,NNE,12,1.0,3.0,46,0.00,,SCT250,0.00,VWS V14.01,2013-06-07 21:08:00,
2013-06-07 16:13:00,73.1,51.1,29.92,NE,44,0.0,4.0,46,0.00,,SCT250,0.00,VWS V14.01,2013-06-07 21:13:00,
2013-06-07 16:18:00,73.2,50.6,29.92,NNE,23,4.0,4.0,45,0.00,,SCT250,0.00,VWS V14.01,2013-06-07 21:18:00,
2013-06-07 16:23:00,73.1,49.3,29.91,ENE,69,0.0,1.0,43,0.00,,SCT250,0.00,VWS V14.01,2013-06-07 21:23:00,
2013-06-07 16:28:00,72.7,50.2,29.91,ENE,64,0.0,0.0,45,0.00,,SCT250,0.00,VWS V14.01,2013-06-07 21:28:00,
2013-06-07 16:33:00,72.4,49.9,29.91,SSE,148,3.0,5.0,45,0.00,,SCT250,0.00,VWS V14.01,2013-06-07 21:33:00,
2013-06-07 16:39:00,72.0,50.1,29.91,East,100,0.0,3.0,46,0.00,,SCT250,0.00,VWS V14.01,2013-06-07 21:39:00,
2013-06-07 16:44:00,71.9,50.6,29.91,SSE,154,5.0,5.0,47,0.00,,SCT250,0.00,VWS V14.01,2013-06-07 21:44:00,
2013-06-07 16:49:00,72.2,50.9,29.91,East,82,2.0,2.0,47,0.00,,SCT250,0.00,VWS V14.01,2013-06-07 21:49:00,
2013-06-07 16:54:00,72.7,51.3,29.91,ENE,78,2.0,2.0,47,0.00,,SCT250,0.00,VWS V14.01,2013-06-07 21:54:00,
2013-06-07 16:59:00,72.6,50.7,29.91,East,93,1.0,2.0,46,0.00,,SCT250,0.00,VWS V14.01,2013-06-07 21:59:00,
2013-06-07 17:05:00,72.6,50.7,29.91,NE,55,2.0,7.0,46,0.00,,SCT250,0.00,VWS V14.01,2013-06-07 22:05:00,
2013-06-07 17:10:00,72.2,50.9,29.90,East,100,3.0,4.0,47,0.00,,SCT250,0.00,VWS V14.01,2013-06-07 22:10:00,
2013-06-07 17:15:00,71.9,50.0,29.90,East,79,2.0,5.0,46,0.00,,SCT250,0.00,VWS V14.01,2013-06-07 22:15:00,
2013-06-07 17:20:00,71.5,50.2,29.90,SE,145,0.0,3.0,47,0.00,,SCT250,0.00,VWS V14.01,2013-06-07 22:20:00,
2013-06-07 17:25:00,71.8,51.1,29.91,ENE,58,2.0,3.0,48,0.00,,SCT250,0.00,VWS V14.01,2013-06-07 22:25:00,
2013-06-07 17:30:00,71.8,49.3,29.91,East,91,0.0,1.0,45,0.00,,SCT250,0.00,VWS V14.01,2013-06-07 22:30:00,
2013-06-07 17:35:00,71.7,50.4,29.90,East,83,1.0,5.0,47,0.00,,SCT250,0.00,VWS V14.01,2013-06-07 22:35:00,
2013-06-07 17:40:00,71.6,50.3,29.90,ENE,66,2.0,2.0,47,0.00,,SCT250,0.00,VWS V14.01,2013-06-07 22:40:00,
2013-06-07 17:45:00,71.7,49.2,29.90,ESE,102,0.0,3.0,45,0.00,,SCT250,0.00,VWS V14.01,2013-06-07 22:45:00,
2013-06-07 17:51:00,71.6,49.8,29.89,SE,137,2.0,4.0,46,0.00,,BKN250,0.00,VWS V14.01,2013-06-07 22:51:00,
2013-06-07 17:56:00,71.3,50.0,29.89,SE,138,3.0,4.0,47,0.00,,BKN250,0.00,VWS V14.01,2013-06-07 22:56:00,
2013-06-07 18:01:00,71.2,49.4,29.89,SE,134,2.0,3.0,46,0.00,,BKN250,0.00,VWS V14.01,2013-06-07 23:01:00,
2013-06-07 18:06:00,71.0,49.8,29.89,NE,37,1.0,4.0,47,0.00,,BKN250,0.00,VWS V14.01,2013-06-07 23:06:00,
2013-06-07 18:11:00,70.9,49.1,29.89,ESE,118,0.0,3.0,46,0.00,,BKN250,0.00,VWS V14.01,2013-06-07 23:11:00,
2013-06-07 18:16:00,70.8,50.2,29.89,ESE,107,2.0,3.0,48,0.00,,BKN250,0.00,VWS V14.01,2013-06-07 23:16:00,
2013-06-07 18:21:00,70.7,50.1,29.89,ESE,108,1.0,2.0,48,0.00,,BKN250,0.00,VWS V14.01,2013-06-07 23:21:00,
2013-06-07 18:26:00,70.7,50.6,29.88,SSE,157,2.0,5.0,49,0.00,,BKN250,0.00,VWS V14.01,2013-06-07 23:26:00,
2013-06-07 18:31:00,70.6,49.4,29.88,South,187,1.0,3.0,47,0.00,,BKN250,0.00,VWS V14.01,2013-06-07 23:31:00,
2013-06-07 18:36:00,70.4,49.8,29.88,South,172,0.0,3.0,48,0.00,,BKN250,0.00,VWS V14.01,2013-06-07 23:36:00,
2013-06-07 18:41:00,70.3,49.7,29.88,South,172,0.0,1.0,48,0.00,,BKN250,0.00,VWS V14.01,2013-06-07 23:41:00,
2013-06-07 18:46:00,70.2,49.6,29.88,South,172,0.0,2.0,48,0.00,,BKN250,0.00,VWS V14.01,2013-06-07 23:46:00,
2013-06-07 18:52:00,70.2,49.6,29.88,South,172,0.0,2.0,48,0.00,,BKN250,0.00,VWS V14.01,2013-06-07 23:52:00,
2013-06-07 18:57:00,70.3,50.3,29.88,SE,125,0.0,1.0,49,0.00,,BKN250,0.00,VWS V14.01,2013-06-07 23:57:00,
2013-06-07 19:02:00,70.3,50.8,29.88,SE,125,0.0,1.0,50,0.00,,BKN250,0.00,VWS V14.01,2013-06-08 00:02:00,
2013-06-07 19:07:00,70.2,49.0,29.88,East,95,0.0,1.0,47,0.00,,BKN250,0.00,VWS V14.01,2013-06-08 00:07:00,
2013-06-07 19:12:00,70.1,49.0,29.87,East,95,0.0,1.0,47,0.00,,BKN250,0.00,VWS V14.01,2013-06-08 00:12:00,
2013-06-07 19:17:00,70.1,49.5,29.88,East,95,0.0,1.0,48,0.00,,BKN250,0.00,VWS V14.01,2013-06-08 00:17:00,
2013-06-07 19:22:00,70.0,50.0,29.87,East,95,0.0,1.0,49,0.00,,BKN250,0.00,VWS V14.01,2013-06-08 00:22:00,
2013-06-07 19:27:00,69.9,51.0,29.88,East,99,0.0,1.0,51,0.00,,BKN250,0.00,VWS V14.01,2013-06-08 00:27:00,
2013-06-07 19:32:00,69.8,51.4,29.87,SE,131,1.0,2.0,52,0.00,,BKN250,0.00,VWS V14.01,2013-06-08 00:32:00,
2013-06-07 19:38:00,69.6,50.7,29.87,SE,130,1.0,3.0,51,0.00,,BKN250,0.00,VWS V14.01,2013-06-08 00:38:00,
2013-06-07 19:43:00,69.4,51.0,29.87,East,91,1.0,1.0,52,0.00,,BKN250,0.00,VWS V14.01,2013-06-08 00:43:00,
2013-06-07 19:48:00,69.3,50.4,29.87,East,84,1.0,3.0,51,0.00,,BKN250,0.00,VWS V14.01,2013-06-08 00:48:00,
2013-06-07 19:54:00,69.1,50.8,29.87,ESE,104,1.0,2.0,52,0.00,,BKN250,0.00,VWS V14.01,2013-06-08 00:54:00,
2013-06-07 19:59:00,68.9,51.1,29.87,NE,50,2.0,3.0,53,0.00,,BKN250,0.00,VWS V14.01,2013-06-08 00:59:00,
2013-06-07 20:04:00,68.7,50.9,29.87,ENE,63,2.0,2.0,53,0.00,,BKN250,0.00,VWS V14.01,2013-06-08 01:04:00,
2013-06-07 20:09:00,68.5,51.2,29.87,ENE,71,1.0,3.0,54,0.00,,BKN250,0.00,VWS V14.01,2013-06-08 01:09:00,
2013-06-07 20:14:00,68.2,51.4,29.87,East,86,1.0,2.0,55,0.00,,BKN250,0.00,VWS V14.01,2013-06-08 01:14:00,
2013-06-07 20:19:00,67.9,51.2,29.87,East,85,1.0,2.0,55,0.00,,BKN250,0.00,VWS V14.01,2013-06-08 01:19:00,
2013-06-07 20:24:00,67.7,51.5,29.87,East,85,1.0,2.0,56,0.00,,BKN250,0.00,VWS V14.01,2013-06-08 01:24:00,
2013-06-07 20:29:00,67.5,51.8,29.87,ENE,77,0.0,2.0,57,0.00,,BKN250,0.00,VWS V14.01,2013-06-08 01:29:00,
2013-06-07 20:34:00,67.3,51.6,29.87,ENE,77,0.0,2.0,57,0.00,,BKN250,0.00,VWS V14.01,2013-06-08 01:34:00,
2013-06-07 20:39:00,67.1,51.4,29.87,East,81,0.0,1.0,57,0.00,,BKN250,0.00,VWS V14.01,2013-06-08 01:39:00,
2013-06-07 20:44:00,66.9,51.2,29.87,East,81,0.0,0.0,57,0.00,,BKN250,0.00,VWS V14.01,2013-06-08 01:44:00,
2013-06-07 20:49:00,66.6,51.4,29.87,East,81,0.0,0.0,58,0.00,,BKN250,0.00,VWS V14.01,2013-06-08 01:49:00,
2013-06-07 20:54:00,66.3,51.6,29.87,East,81,0.0,0.0,59,0.00,,BKN250,0.00,VWS V14.01,2013-06-08 01:54:00,
2013-06-07 20:59:00,65.9,51.6,29.87,East,81,1.0,1.0,60,0.00,,BKN250,0.00,VWS V14.01,2013-06-08 01:59:00,
2013-06-07 21:04:00,65.8,51.5,29.87,East,81,0.0,0.0,60,0.00,,BKN250,0.00,VWS V14.01,2013-06-08 02:04:00,
2013-06-07 21:10:00,65.5,52.2,29.87,South,177,0.0,2.0,62,0.00,,BKN250,0.00,VWS V14.01,2013-06-08 02:10:00,
2013-06-07 21:15:00,65.2,51.9,29.87,South,177,0.0,1.0,62,0.00,,BKN250,0.00,VWS V14.01,2013-06-08 02:15:00,
2013-06-07 21:20:00,64.9,52.0,29.87,East,81,1.0,3.0,63,0.00,,BKN250,0.00,VWS V14.01,2013-06-08 02:20:00,
2013-06-07 21:25:00,64.6,51.7,29.87,East,81,0.0,1.0,63,0.00,,BKN250,0.00,VWS V14.01,2013-06-08 02:25:00,
2013-06-07 21:30:00,64.4,52.0,29.87,East,83,1.0,4.0,64,0.00,,BKN250,0.00,VWS V14.01,2013-06-08 02:30:00,
2013-06-07 21:35:00,64.1,52.1,29.87,East,87,1.0,2.0,65,0.00,,BKN250,0.00,VWS V14.01,2013-06-08 02:35:00,
2013-06-07 21:40:00,63.9,51.9,29.87,ESE,108,2.0,3.0,65,0.00,,BKN250,0.00,VWS V14.01,2013-06-08 02:40:00,
2013-06-07 21:45:00,63.8,52.2,29.87,ESE,114,0.0,1.0,66,0.00,,BKN250,0.00,VWS V14.01,2013-06-08 02:45:00,
2013-06-07 21:51:00,63.5,52.0,29.88,SE,137,0.0,2.0,66,0.00,,BKN250,0.00,VWS V14.01,2013-06-08 02:51:00,
2013-06-07 21:56:00,63.3,52.2,29.87,East,87,0.0,3.0,67,0.00,,BKN250,0.00,VWS V14.01,2013-06-08 02:56:00,
2013-06-07 22:01:00,63.1,52.4,29.88,SSE,158,0.0,1.0,68,0.00,,BKN250,0.00,VWS V14.01,2013-06-08 03:01:00,
2013-06-07 22:06:00,62.8,52.5,29.88,SSE,156,1.0,2.0,69,0.00,,BKN250,0.00,VWS V14.01,2013-06-08 03:06:00,
2013-06-07 22:11:00,62.6,52.3,29.88,SSE,155,1.0,1.0,69,0.00,,BKN250,0.00,VWS V14.01,2013-06-08 03:11:00,
2013-06-07 22:16:00,62.4,52.1,29.88,East,101,0.0,1.0,69,0.00,,BKN250,0.00,VWS V14.01,2013-06-08 03:16:00,
2013-06-07 22:21:00,62.2,52.3,29.88,SE,125,1.0,3.0,70,0.00,,BKN250,0.00,VWS V14.01,2013-06-08 03:21:00,
2013-06-07 22:26:00,62.0,52.1,29.88,SSE,159,0.0,2.0,70,0.00,,BKN250,0.00,VWS V14.01,2013-06-08 03:26:00,
2013-06-07 22:31:00,61.7,52.2,29.88,South,174,1.0,3.0,71,0.00,,BKN250,0.00,VWS V14.01,2013-06-08 03:31:00,
2013-06-07 22:37:00,61.4,52.3,29.88,SSE,168,0.0,1.0,72,0.00,,BKN250,0.00,VWS V14.01,2013-06-08 03:37:00,
2013-06-07 22:42:00,61.2,52.5,29.88,SSE,168,0.0,0.0,73,0.00,,BKN250,0.00,VWS V14.01,2013-06-08 03:42:00,
2013-06-07 22:47:00,61.0,52.3,29.88,SSE,168,0.0,0.0,73,0.00,,BKN250,0.00,VWS V14.01,2013-06-08 03:47:00,
2013-06-07 22:52:00,60.8,52.1,29.88,SSE,168,0.0,1.0,73,0.00,,BKN250,0.00,VWS V14.01,2013-06-08 03:52:00,
2013-06-07 22:57:00,60.7,52.4,29.88,SSE,168,0.0,0.0,74,0.00,,BKN250,0.00,VWS V14.01,2013-06-08 03:57:00,
2013-06-07 23:01:00,60.5,52.2,29.88,SSE,168,0.0,0.0,74,0.00,,BKN250,0.00,VWS V14.01,2013-06-08 04:01:00,
2013-06-07 23:06:00,60.3,52.3,29.88,SSE,166,0.0,2.0,75,0.00,,BKN250,0.00,VWS V14.01,2013-06-08 04:06:00,
2013-06-07 23:11:00,60.2,52.6,29.88,SSE,166,1.0,3.0,76,0.00,,BKN250,0.00,VWS V14.01,2013-06-08 04:11:00,
2013-06-07 23:17:00,60.3,52.3,29.89,SSE,164,1.0,2.0,75,0.00,,BKN250,0.00,VWS V14.01,2013-06-08 04:17:00,
2013-06-07 23:22:00,60.3,52.3,29.89,South,173,1.0,3.0,75,0.00,,BKN250,0.00,VWS V14.01,2013-06-08 04:22:00,
2013-06-07 23:27:00,60.3,52.3,29.89,SSE,158,1.0,3.0,75,0.00,,BKN250,0.00,VWS V14.01,2013-06-08 04:27:00,
2013-06-07 23:32:00,60.2,52.3,29.89,SSE,158,2.0,3.0,75,0.00,,BKN250,0.00,VWS V14.01,2013-06-08 04:32:00,
2013-06-07 23:37:00,60.0,52.1,29.89,South,171,2.0,3.0,75,0.00,,BKN250,0.00,VWS V14.01,2013-06-08 04:37:00,
2013-06-07 23:42:00,59.9,52.0,29.89,South,169,1.0,3.0,75,0.00,,BKN250,0.00,VWS V14.01,2013-06-08 04:42:00,
2013-06-07 23:47:00,59.8,51.9,29.89,SSE,154,4.0,4.0,75,0.00,,BKN250,0.00,VWS V14.01,2013-06-08 04:47:00,
2013-06-07 23:52:00,59.8,51.9,29.88,SSE,163,1.0,3.0,75,0.00,,SCT250,0.00,VWS V14.01,2013-06-08 04:52:00,
2013-06-07 23:57:00,59.7,52.1,29.88,SSE,149,4.0,4.0,76,0.00,,SCT250,0.00,VWS V14.01,2013-06-08 04:57:00,